Overview Statistics Trail Chart Weather Telemetry Raw packets
 

This is the latest recevied weather packets stored in our database for station/object OE5MMP-13. If no packets are shown the sender has not sent any weather packets the latest 10 day(s).

<< 9 10 11 12 13 14 15 >>
Time Temp. Humidity Pressure Rain* Wind** Luminosity Snow
1788520993 26.67° C 45% 1019.2 hPa 0 mm - 722 W/m² -
1788520393 26.67° C 46% 1019.4 hPa 0 mm - 725 W/m² -
1788519792 26.11° C 48% 1019.5 hPa 0 mm - 728 W/m² -
1788519192 25.56° C 48% 1019.6 hPa 0 mm - 716 W/m² -
1788518592 25.56° C 49% 1019.8 hPa 0 mm - 565 W/m² -
1788517993 25.56° C 50% 1020 hPa 0 mm - 733 W/m² -
1788517392 25.56° C 50% 1020.2 hPa 0 mm - 684 W/m² -
1788516792 25° C 51% 1020.1 hPa 0 mm - 722 W/m² -
1788516193 25° C 50% 1020.2 hPa 0 mm - 686 W/m² -
1788515592 24.44° C 52% 1020.5 hPa 0 mm - 704 W/m² -
1788514992 24.44° C 52% 1020.6 hPa 0 mm - 685 W/m² -
1788514392 24.44° C 53% 1020.7 hPa 0 mm - 720 W/m² -
1788513792 24.44° C 54% 1020.8 hPa 0 mm - 589 W/m² -
1788513192 24.44° C 55% 1020.9 hPa 0 mm - 667 W/m² -
1788512592 24.44° C 54% 1021.1 hPa 0 mm - 644 W/m² -
1788511992 23.89° C 54% 1021.2 hPa 0 mm - 623 W/m² -
1788511392 23.89° C 54% 1021.2 hPa 0 mm - 557 W/m² -
1788510791 23.89° C 55% 1021.4 hPa 0 mm - 567 W/m² -
1788510192 23.89° C 55% 1021.6 hPa 0 mm - 571 W/m² -
1788509592 23.33° C 57% 1021.3 hPa 0 mm - 503 W/m² -
1788508992 23.33° C 56% 1021.4 hPa 0 mm - 495 W/m² -
1788508392 22.78° C 56% 1021.5 hPa 0 mm - 517 W/m² -
1788507791 22.22° C 56% 1021.3 hPa 0 mm - 460 W/m² -
1788507191 22.22° C 57% 1021.5 hPa 0 mm - 447 W/m² -
1788506591 22.22° C 58% 1021.5 hPa 0 mm - 408 W/m² -

* Rain latest hour (hover to see other rain measurements)
** Current wind speed in m/s (hover to see current wind gust speed)